Boothbay Harbor Weather Center

Moon Phase Calendar



Online Cameras

 


      

Current Conditions in Boothbay
6/20/2021 3:27:27 AM

61°F
Feels Like 61
Clouds
Humidity
93%
Pressure
29.65"
Wind
0
Dew Point
59°F
UV Index
0/10 (Low)
Visibility
6 mi

Hourly Forecast

Date & Time Sun, Jun 20
3:00 AM
Sun, Jun 20
4:00 AM
Sun, Jun 20
5:00 AM
Sun, Jun 20
6:00 AM
Sun, Jun 20
7:00 AM
Sun, Jun 20
8:00 AM
Sun, Jun 20
9:00 AM
Sun, Jun 20
10:00 AM
Sun, Jun 20
11:00 AM
Sun, Jun 20
12:00 PM
Sun, Jun 20
1:00 PM
Sun, Jun 20
2:00 PM
Sun, Jun 20
3:00 PM
Sun, Jun 20
4:00 PM
Sun, Jun 20
5:00 PM
Sun, Jun 20
6:00 PM
Sun, Jun 20
7:00 PM
Sun, Jun 20
8:00 PM
Sun, Jun 20
9:00 PM
Sun, Jun 20
10:00 PM
Sun, Jun 20
11:00 PM
Mon, Jun 21
12:00 AM
Mon, Jun 21
1:00 AM
Mon, Jun 21
2:00 AM
Mon, Jun 21
3:00 AM
Mon, Jun 21
4:00 AM
Mon, Jun 21
5:00 AM
Mon, Jun 21
6:00 AM
Mon, Jun 21
7:00 AM
Mon, Jun 21
8:00 AM
Mon, Jun 21
9:00 AM
Mon, Jun 21
10:00 AM
Mon, Jun 21
11:00 AM
Mon, Jun 21
12:00 PM
Mon, Jun 21
1:00 PM
Mon, Jun 21
2:00 PM
Mon, Jun 21
3:00 PM
Mon, Jun 21
4:00 PM
Mon, Jun 21
5:00 PM
Mon, Jun 21
6:00 PM
Mon, Jun 21
7:00 PM
Mon, Jun 21
8:00 PM
Mon, Jun 21
9:00 PM
Mon, Jun 21
10:00 PM
Mon, Jun 21
11:00 PM
Tue, Jun 22
12:00 AM
Tue, Jun 22
1:00 AM
Tue, Jun 22
2:00 AM
Condition
Clouds

Clouds

Clouds

Clouds

Clouds

Clouds

Clear

Clear

Clear

Clear

Clear

Clouds

Clouds

Clouds

Clouds

Clouds

Clouds

Clouds

Clear

Clear

Clear

Clear

Clear

Clear

Clouds

Clouds

Clouds

Clouds

Clouds

Clouds

Clouds

Clouds

Clouds

Clouds

Clouds

Clouds

Rain

Rain

Clouds

Clouds

Clouds

Clouds

Clouds

Clouds

Clouds

Clouds

Rain

Rain
Temperature 61°F61°F61°F61°F63°F66°F69°F71°F72°F73°F74°F72°F71°F70°F69°F67°F67°F66°F63°F63°F63°F63°F63°F62°F62°F62°F62°F62°F64°F67°F68°F69°F69°F69°F70°F70°F71°F72°F71°F70°F69°F68°F66°F66°F65°F65°F64°F64°F
Feels Like 61°F61°F61°F61°F63°F66°F69°F71°F72°F73°F74°F72°F71°F69°F68°F67°F67°F65°F63°F63°F63°F63°F62°F62°F61°F61°F62°F62°F64°F67°F68°F70°F69°F70°F71°F71°F72°F72°F71°F70°F69°F68°F67°F66°F66°F65°F65°F64°F
Cloudiness 20%36%52%55%54%52%0%0%1%0%1%13%79%83%87%88%84%74%0%1%0%1%2%8%50%75%83%87%89%77%82%64%74%81%84%87%100%96%87%83%69%65%75%87%88%89%92%93%
Visibility 6 mi6 mi6 mi6 mi6 mi6 mi6 mi6 mi6 mi6 mi6 mi6 mi6 mi6 mi6 mi6 mi6 mi6 mi6 mi6 mi6 mi6 mi6 mi6 mi6 mi6 mi6 mi6 mi6 mi6 mi6 mi6 mi6 mi6 mi6 mi6 mi6 mi6 mi6 mi6 mi6 mi6 mi6 mi6 mi6 mi6 mi6 mi4 mi
Precipitation 0%0%0%0%0%0%0%0%0%0%0%0%0%0%0%0%0%0%0%0%0%0%0%0%0%0%0%0%0%0%4%4%0%0%0%0%37%24%28%24%20%12%22%29%30%35%58%75%
Humidity 93%89%85%82%75%66%60%57%55%56%56%60%63%66%67%70%72%77%82%83%81%79%78%79%80%80%80%84%83%80%82%81%83%82%82%82%80%79%80%81%84%86%89%89%90%93%96%97%
Dew Point 59°F58°F56°F56°F55°F54°F54°F53°F54°F54°F55°F56°F57°F57°F57°F57°F57°F58°F58°F57°F57°F56°F56°F56°F55°F55°F56°F57°F58°F60°F61°F62°F63°F63°F64°F64°F64°F64°F64°F64°F63°F63°F63°F63°F62°F63°F63°F63°F
Pressure 29.65"29.65"29.65"29.68"29.71"29.74"29.74"29.74"29.74"29.71"29.71"29.71"29.71"29.71"29.71"29.74"29.74"29.74"29.74"29.77"29.77"29.77"29.77"29.77"29.77"29.77"29.77"29.77"29.77"29.77"29.77"29.77"29.74"29.71"29.71"29.68"29.65"29.65"29.62"29.59"29.62"29.62"29.62"29.62"29.62"29.62"29.65"29.62"
Wind Speed 2.6 mph4.3 mph5.3 mph6.1 mph6.6 mph6.2 mph6.5 mph6.9 mph6.8 mph8.7 mph9.9 mph12.3 mph11.7 mph10.6 mph11.4 mph12.7 mph12.2 mph9.4 mph8.2 mph6.7 mph5.8 mph4.1 mph2.5 mph2 mph1.4 mph2.6 mph5.2 mph6 mph6.5 mph7.9 mph9.2 mph11.4 mph12 mph14 mph14.6 mph16.2 mph18.5 mph20.6 mph22.2 mph23.1 mph21.6 mph20.8 mph18.9 mph19.8 mph21.3 mph20 mph19.4 mph16.7 mph
Wind
Direction
237°
WSW
257°
WSW
284°
WNW
283°
WNW
287°
WNW
291°
WNW
282°
WNW
269°
W
246°
WSW
227°
SW
209°
SSW
191°
S
189°
S
193°
SSW
199°
SSW
212°
SSW
214°
SW
209°
SSW
223°
SW
241°
WSW
257°
WSW
276°
W
281°
W
288°
WNW
217°
SW
175°
S
166°
SSE
178°
S
188°
S
192°
SSW
197°
SSW
191°
S
184°
S
186°
S
190°
S
187°
S
189°
S
186°
S
187°
S
185°
S
188°
S
190°
S
189°
S
197°
SSW
200°
SSW
207°
SSW
208°
SSW
207°
SSW

Daily Forecast

Date High Low Precip. Humidity
Today
Jun 20

Clear
74 °F
61 °F
0%
56%
Monday
Jun 21

Rain
72 °F
62 °F
37%
82%
Tuesday
Jun 22

Rain
66 °F
58 °F
86%
95%
Wednesday
Jun 23

Clear
69 °F
53 °F
0%
46%
Thursday
Jun 24

Clear
68 °F
54 °F
0%
66%
Friday
Jun 25

Clear
66 °F
56 °F
0%
71%
Saturday
Jun 26

Rain
69 °F
60 °F
23%
94%
Sunday
Jun 27

Clouds
72 °F
63 °F
8%
86%
Monday
Jun 28

Clouds
72 °F
63 °F
8%
84%
Tuesday
Jun 29

Clouds
73 °F
63 °F
0%
82%
Wednesday
Jun 30

Rain
73 °F
64 °F
53%
81%
Thursday
Jul 1

Rain
66 °F
64 °F
86%
98%
Friday
Jul 2

Rain
66 °F
62 °F
100%
99%
Saturday
Jul 3

Clouds
74 °F
62 °F
0%
67%
Sunday
Jul 4

Clouds
75 °F
62 °F
0%
61%
Monday
Jul 5

Clouds
78 °F
63 °F
0%
64%

Temperature 8-14 Day Outlook



Precipitation 8-14 Day Outlook




Quick Links
Boothbay Harbor News
Boothbay Harbor Photos
Boothbay Harbor Videos




About Us
Contact Us
Site Map
Search Site
Advertise With Us
   
BoothbayHarbor.USCoast.info
THE BOOTHBAY HARBOR WEBSITE

Copyright 2021, Coastal Town
Privacy    |    Legal